Terminal Aerodrome Forecast
Issued by NWS Mt. Holly, NJ

Home | Current Version | Previous Version | Text Only | Print | Product List | Glossary On
Versions: 1 2 3 4 5 6 7 8 9 10 11 12 13 14 15 16 17 18 19 20 21
000
FTUS41 KPHI 251007 AAC
TAFACY
TAF AMD
KACY 251007Z 2510/2606 18005KT P6SM FEW004
      TEMPO 2511/2513 6SM BR BKN004
     FM251300 17008KT P6SM BKN020
     FM251500 17012G20KT P6SM BKN035
      TEMPO 2522/2524 27016G30KT 3SM TSRA OVC020CB
     FM260000 29012G20KT P6SM VCSH OVC050
     FM260200 29012G22KT P6SM SCT040=

USA.gov is the U.S. government's official web portal to all federal, state and local government web resources and services.